Location: Krasnoyarskiy Pitomnik
(51.1333°N, 71.6167°E)
Time: 09:27:34
(UTC+00:00)

Altair - Pass Details

Date: 16 April 2024
Orbit: 1501 x 1682 km, 47.2° (Epoch: 17 May)

Event Time Altitude Azimuth Distance (km) Brightness Sun altitude
Rises 15:11:41 0° 224° (SW) 4,903 10.3 -9.4°
Reaches altitude 10° 15:15:01 10° 219° (SW) 3,902 9.7 -9.9°
Maximum altitude 15:24:19 47° 150° (SSE) 2,062 7.8 -11.1°
Drops below altitude 10° 15:33:20 10° 81° (E) 3,784 9.1 -12.3°
Sets 15:36:30 0° 76° (ENE) 4,746 9.7 -12.7°
